Regional Weather Roundup
Issued by NWS

Home | Current Version | Previous Version | Graphics & Text | Print | Product List | Glossary On
Versions: 1 2 3 4 5 6 7 8 9 10 11 12 13 14 15 16 17 18 19 20 21 22 23 24 25 26 27 28 29 30 31 32 33 34 35 36 37 38 39 40 41 42 43 44 45 46 47 48 49 50
193
ASUS43 KTOP 301508
RWRKS

WEATHER ROUNDUP FOR KANSAS
NATIONAL WEATHER SERVICE GOODLAND KS
1000 AM CDT TUE AUG 30 2016

NOTE:  "FAIR" INDICATES FEW OR NO CLOUDS BELOW 12,000 FEET WITH NO
SIGNIFICANT WEATHER AND/OR OBSTRUCTIONS TO VISIBILITY.

KSZ001>006-013>018-027>032-041>047-301600-
NORTHWEST KANSAS

CITY           SKY/WX    TMP DP  RH WIND       PRES   REMARKS
GOODLAND       CLOUDY    66  63  90 CALM      30.28R
HAYS           CLOUDY    70  61  73 E3        30.22S
HILL CITY      CLOUDY    69  67  93 CALM      30.24S
RUSSELL        LGT RAIN  72  68  87 CALM      30.21R
$$

KSZ061>065-074>080-084>089-301600-
SOUTHWEST KANSAS

CITY           SKY/WX    TMP DP  RH WIND       PRES   REMARKS
DODGE CITY     CLOUDY    69  67  93 N3        30.24S FOG
ELKHART          N/A     66  62  87 SE5         N/A
GARDEN CITY    CLOUDY    67  66  97 E7        30.25S FOG
GREAT BEND     CLOUDY    70  63  78 CALM      30.21R
LIBERAL        MOSUNNY   70  64  83 NE5       30.27R
PRATT          CLOUDY    70  67  90 NE6       30.21S
$$

KSZ066>073-081>083-090>101-301600-
SOUTHEAST KANSAS

CITY           SKY/WX    TMP DP  RH WIND       PRES   REMARKS
CHANUTE        SUNNY     81  72  74 E5        30.16R
COFFEYVILLE    SUNNY     79  72  79 CALM      30.14S
HUTCHINSON     CLOUDY    76  70  82 E8        30.18S
MEDICINE LODGE   N/A     76  70  82 VRB3      30.17S
NEWTON         CLOUDY    78  71  79 SE6       30.19S
PARSONS        SUNNY     81  71  71 VRB3      30.16S
WICHITA INTL   MOSUNNY   82  69  64 CALM      30.16S
WICHITA JABRA  SUNNY     80  70  71 NE5       30.17S
WICHITA MCCONL SUNNY     80  69  70 E3        30.16F
WINFIELD       SUNNY     81  71  71 E3        30.17R
$$

KSZ007>012-019>026-033>040-048>060-102>105-301600-
NORTHEAST KANSAS

CITY           SKY/WX    TMP DP  RH WIND       PRES   REMARKS
CONCORDIA      CLOUDY    73  69  87 NE5       30.20S
EMPORIA        MOSUNNY   77  71  82 E3        30.17S
LAWRENCE       CLOUDY    74  72  93 CALM      30.16S
MANHATTAN      CLOUDY    75  70  84 NE3       30.17S
MARYSVILLE     CLOUDY    72  70  94 N5        30.21R
OLATHE IND     CLOUDY    76  71  85 CALM      30.17S
OLATHE EXE     MOSUNNY   73  70  90 CALM      30.17R
SALINA         CLOUDY    74  71  91 SE5       30.18S
TOPEKA BILLARD CLOUDY    78  71  79 CALM      30.16S
TOPEKA FORBES  CLOUDY    79  71  76 CALM      30.17R
$$




USA.gov is the U.S. government's official web portal to all federal, state and local government web resources and services.